SITRO-AIS-55

operational
NORAD ID: 59778 Int'l Des: 2024-092 Owner: SITRO Country: RU
LEOCIRCULARRETROGRADESSO

Über SITRO-AIS-55

Beschreibung wird geladen...

Live-Position

3D-Globus wird geladen...

Nächste Überflüge

Höhenverlauf

Altitude vs Time

uPlot chart will show altitude changes over time

Zweizeiliger Elementsatz

1 59778U 24092F 26062.32221068 .00027371 00000-0 85222-3 0 9995
2 59778 97.6408 191.6414 0008524 164.8270 195.3229 15.33222154 99529
Epoch: 3. März 2026 • Age: 42 hours

Aktueller Status

Höhe 487.8 km
Geschwindigkeit 7.62 km/s
Subsatellitenpunkt -58.99°S, 67.22°W
Startdatum 16. Mai 2024
Alter 1.7 years
Typ other

Technische Details

Klassifizierung Payload
Masse 3.00 kg
Trockenmasse 3.00 kg
Gesamtmasse 3.00 kg
Länge 0.30 m
Durchmesser 0.10 m
Spannweite 0.30 m
Form Box
Hersteller SPUT
Bus-Typ Cubesat 3U
Phasenstatus In Orbit
Besitzer/Staat SITRO/RU

Große Konstellationen

Loading constellations...